カタログに戻る

STARLINK-37993

運用中通信SSO
NORAD 69976·PAYLOAD·🇺🇸 United States

打ち上げ Jul 11, 2026 から Vandenberg Space Force Base

Loading…

次のパス (今後24時間)

TLE

最新Source: CelesTrak SupGP

元期: Sep 14, 2026, 23:21 UTC

1 69976C 26159B   26257.97340278 -.00703970  00000+0 -12819-1 0  2578
2 69976  97.2849  99.6960 0001694  94.8896  91.5753 15.49881141    14

AllMySatでSTARLINK-37993をリアルタイム追跡

Download on the App Store